Location: Carri�res
(48.9069°N, 2.1792°E)
Time: 20:59:42
(UTC+00:00)

Meteor 2-8 Rocket - Pass Details

Date: 17 January 2021
Orbit: 937 x 957 km, 82.5° (Epoch: 02 March)

Event Time Altitude Azimuth Distance (km) Brightness Sun altitude
Rises 19:07:31 0° 350° (N) 3,613 7.6 -26.1°
Reaches altitude 10° 19:10:01 10° 352° (N) 2,666 6.8 -26.5°
Maximum altitude 19:16:07 77° 80° (E) 971 4.2 -27.5°
Enters shadow 19:16:21 76° 105° (ESE) 976 4.2 -27.5°
